Location: Unspecified
(0.0000°N, 0.0000°E)
Time: 07:31:12
(UTC+00:00)

Explorer 7 - All Passes

Search period start: 26 May 2017 00:00
Search period end: 05 June 2017 00:00
Orbit: 486 x 684 km, 50.3° (Epoch: 25 May)

Date Brightness Start Highest point End Pass type
(mag) Time Alt. Az. Time Alt. Az. Time Alt. Az.
26 May - 03:01:14 10° SSE 03:03:16 14° SE 03:05:21 10° E visible
26 May - 04:40:12 10° WSW 04:43:36 28° NW 04:47:10 10° N visible
26 May - 15:02:36 10° N 15:06:39 26° NE 15:10:34 10° ESE daylight
26 May - 16:43:23 10° WNW 16:47:08 23° SW 16:50:45 10° S daylight
27 May - 03:05:40 10° S 03:09:04 30° SE 03:12:35 10° ENE visible
27 May - 04:47:33 10° W 04:49:30 13° NW 04:51:28 10° NNW visible
27 May - 15:07:45 10° NNW 15:12:30 53° NE 15:17:03 10° SE daylight
27 May - 16:51:27 10° WSW 16:52:57 11° SW 16:54:26 10° SW daylight
28 May - 03:11:02 10° SSW 03:14:50 74° SE 03:18:50 10° NE visible
28 May - 15:13:27 10° NW 15:18:18 73° SW 15:22:57 10° SSE daylight
29 May - 03:16:59 10° SW 03:20:39 44° NW 03:24:28 10° NNE visible
29 May - 13:40:10 10° N 13:43:32 18° NE 13:46:50 10° E daylight
29 May - 15:19:40 10° WNW 15:24:05 35° SW 15:28:21 10° SSE daylight
30 May - 01:43:25 10° S 01:46:08 19° SE 01:48:55 10° E night (unlit)
30 May - 03:23:39 10° W 03:26:29 20° NW 03:29:25 10° N visible
30 May - 13:44:54 10° NNW 13:49:24 36° NE 13:53:47 10° ESE daylight
30 May - 15:26:39 10° W 15:29:52 18° SW 15:33:03 10° S daylight
31 May - 01:48:20 10° SSW 01:51:56 43° SE 01:55:38 10° NE night (unlit)
31 May - 13:50:18 10° NNW 13:55:13 74° NE 13:59:58 10° SE daylight
01 Jun - 01:53:57 10° SW 01:57:43 75° NW 02:01:36 10° NNE night (unlit)
01 Jun - 12:18:18 10° NNE 12:20:23 13° NE 12:22:29 10° ENE daylight
01 Jun - 13:56:13 10° NW 14:00:59 53° SW 14:05:40 10° SSE daylight
02 Jun - 00:21:47 10° SSE 00:23:12 12° SE 00:24:37 10° ESE night (unlit)
02 Jun - 02:00:11 10° WSW 02:03:32 30° NW 02:06:57 10° N night (unlit)
02 Jun - 12:22:16 10° N 12:26:16 25° NE 12:30:13 10° ESE daylight
02 Jun - 14:02:41 10° WNW 14:06:47 26° SW 14:10:48 10° S daylight
03 Jun - 00:25:50 10° S 00:29:01 26° SE 00:32:14 10° ENE night (unlit)
03 Jun - 02:07:26 10° W 02:09:23 14° NW 02:11:21 10° NNW night (unlit)
03 Jun - 12:27:20 10° NNW 12:32:06 49° NE 12:36:47 10° SE daylight
03 Jun - 14:10:13 10° W 14:12:37 14° SW 14:14:59 10° SSW daylight
04 Jun - 00:31:05 10° SSW 00:34:48 64° SE 00:38:34 10° NE night (unlit)
04 Jun - 12:32:57 10° NW 12:37:53 81° SW 12:42:45 10° SE daylight
